Погода в Черногорской

Россия / Республика Коми     65°01′14″N   52°18′53″E
темп.,
°C
ветер,
м/с
пор.,
м/с
влажн.,
%
обл.,
%
осадки,
мм/ч
давл.,
гПа
погр.,
м
13 апреля, вт
вт1300:00+2юз41086100 0.1 1028481
03:00+4юз41388100 0.4 1025636
06:00+6юз51494100 0.0 1024802
09:00+7юз51391100 0.0 1023743
12:00+9юз61482100 0.1 10211106
15:00+7юз51389100 3.1 10191001
18:00+7зюз41191100 0.0 1018775
21:00+6зюз31193100 0.1 1018585
14 апреля, ср
ср1400:00+6зюз41092100 0.0 1018456
03:00+6юз3994100 0.0 1018315
06:00+6ююз31092100 0.0 1017499
09:00+8юз51081100 0.0 1015798
12:00+9юз41083100 0.0 1014820
15:00+9юз51288100 0.4 1011907
18:00+8зюз2697100 3.9 1008208
21:00+2сз41196100 10.3 1011561
15 апреля, чт
чт1500:00+2з41091100 0.1 1012829
03:00+2зсз5107572 0.4 10141108
06:000зсз5107898 0.1 10161167
09:00+2зсз5106199 0.1 10181382
12:00+3сз6847100 0.0 10201946
15:00+4сз5751100 0.1 10211703
18:00+2сз3562100 0.4 1022559
21:000зсз1182100 0.8 102386
16 апреля, пт
пт1600:00−1сз249799 0.5 1024304
03:00−2сз279210 0.7 1026383
06:00−1зсз368180 0.0 1026644
09:000зсз3465100 0.1 10271037
12:00+3зсз4648100 0.1 10261725
15:00+3сз585269 0.2 10261911
18:00+1ссз48625 0.1 1027993
21:00−2с3676100 0.1 1029345
17 апреля, сб
сб1700:00−3в3581100 0.0 1029473
03:00−4юв3463100 0.0 1028438
06:00−3ююв4767100 0.1 1026530
09:00−3юв5983100 1.2 1023691
12:00−3юв61080100 1.7 1022856
15:00−2юв4785100 3.6 1022768
18:00−3вюв248591 0.6 1025500
21:00−4ю139198 0.6 1027149